UAE78L LIRF-OMDB

Flight info

Callsign UAE78L
Flight time N/A
Altitude 39000
Route ROTUN8B ROTUN DCT NERAR DCT VENIM DCT BONAR M980 LOSUL M855 MMA/N0494F410 P751 DASUM Y234 FYM M872 BDB Y214 RAPMA DCT KUVSO DCT RIBOT M550 GOLGU DCT UKRAG G783 ASPED Q308 KIPOK Q568 IMPED
Aircraft A388/J-SADE2E3FGHIJ3J4J5M1RWXY/LB1D1

Departure

Time N/A
Airport Rome–Fiumicino Leonardo da Vinci International Airport (LIRF)

Arrival

Time 2026-04-24 21:05
Airport Dubai International Airport (OMDB)
Time Latitude Longitude Altitude Speed Heading
2026-04-24 20:34 23.34025 53.82544 40886 ft 567 kts 81°
2026-04-24 20:34 23.35018 53.91006 40882 ft 567 kts 81°
2026-04-24 20:35 23.36014 53.99533 40883 ft 567 kts 81°
2026-04-24 20:35 23.37004 54.08054 40875 ft 567 kts 81°
2026-04-24 20:36 23.37987 54.16551 40875 ft 566 kts 81°
2026-04-24 20:36 23.38968 54.25070 40871 ft 566 kts 81°
2026-04-24 20:37 23.39935 54.33513 40871 ft 565 kts 81°
2026-04-24 20:37 23.40902 54.41999 40873 ft 565 kts 81°
2026-04-24 20:38 23.41868 54.50506 40878 ft 563 kts 81°
2026-04-24 20:38 23.42338 54.54692 40646 ft 552 kts 81°
2026-04-24 20:38 23.42798 54.58781 39975 ft 550 kts 81°
2026-04-24 20:39 23.43263 54.62915 39185 ft 550 kts 80°
2026-04-24 20:39 23.43728 54.67052 38501 ft 548 kts 80°
2026-04-24 20:39 23.44188 54.71154 37990 ft 541 kts 81°
2026-04-24 20:39 23.44635 54.75171 37707 ft 530 kts 81°
2026-04-24 20:40 23.45076 54.79128 37440 ft 526 kts 81°
2026-04-24 20:40 23.45515 54.83069 37016 ft 523 kts 81°
2026-04-24 20:40 23.45952 54.87003 36290 ft 523 kts 81°
2026-04-24 20:40 23.46398 54.90929 35518 ft 522 kts 79°
2026-04-24 20:41 23.47267 54.94758 34747 ft 518 kts 68°
2026-04-24 20:41 23.48764 54.98311 33958 ft 515 kts 58°
2026-04-24 20:41 23.50842 55.01469 33112 ft 510 kts 45°
2026-04-24 20:41 23.53367 55.04058 32412 ft 501 kts 34°
2026-04-24 20:42 23.56242 55.06139 31727 ft 493 kts 29°
2026-04-24 20:42 23.59136 55.08130 31056 ft 489 kts 30°
2026-04-24 20:42 23.61988 55.10129 30405 ft 485 kts 30°
2026-04-24 20:42 23.64810 55.12121 29814 ft 480 kts 30°
2026-04-24 20:43 23.67598 55.14094 29154 ft 474 kts 30°
2026-04-24 20:43 23.70346 55.16038 28444 ft 469 kts 30°
2026-04-24 20:43 23.73076 55.17968 27759 ft 464 kts 30°
2026-04-24 20:43 23.75769 55.19871 27091 ft 460 kts 30°
2026-04-24 20:44 23.78450 55.21767 26428 ft 455 kts 30°
2026-04-24 20:44 23.81100 55.23642 25782 ft 451 kts 30°
2026-04-24 20:44 23.83687 55.25474 25162 ft 447 kts 30°
2026-04-24 20:44 23.86291 55.27317 24503 ft 443 kts 30°
2026-04-24 20:45 23.88877 55.29150 23881 ft 440 kts 30°
2026-04-24 20:45 23.91437 55.30965 23262 ft 436 kts 30°
2026-04-24 20:45 23.93972 55.32762 22622 ft 431 kts 30°
2026-04-24 20:45 23.96468 55.34533 21997 ft 425 kts 30°
2026-04-24 20:46 23.98939 55.36288 21384 ft 420 kts 30°
2026-04-24 20:46 24.01347 55.37997 20795 ft 415 kts 30°
2026-04-24 20:46 24.03752 55.39706 20200 ft 410 kts 31°
2026-04-24 20:46 24.06135 55.41400 19628 ft 405 kts 31°
2026-04-24 20:47 24.08474 55.43063 19064 ft 400 kts 31°
2026-04-24 20:47 24.10808 55.44723 18505 ft 396 kts 31°
2026-04-24 20:47 24.13099 55.46353 17909 ft 391 kts 31°
2026-04-24 20:47 24.15379 55.47978 17230 ft 388 kts 31°
2026-04-24 20:48 24.17632 55.49583 16587 ft 384 kts 31°
2026-04-24 20:48 24.19836 55.51154 15958 ft 381 kts 32°
2026-04-24 20:48 24.22057 55.52737 15289 ft 379 kts 31°
2026-04-24 20:48 24.24254 55.54304 14718 ft 374 kts 32°
2026-04-24 20:49 24.26426 55.55854 14097 ft 371 kts 32°
2026-04-24 20:49 24.28584 55.57394 13478 ft 368 kts 32°
2026-04-24 20:49 24.30723 55.58921 13014 ft 365 kts 32°
2026-04-24 20:49 24.32854 55.60443 12757 ft 366 kts 32°
2026-04-24 20:50 24.34958 55.61947 12505 ft 365 kts 32°
2026-04-24 20:50 24.37084 55.63466 12263 ft 364 kts 32°
2026-04-24 20:50 24.39202 55.64981 12061 ft 363 kts 32°
2026-04-24 20:50 24.41347 55.66516 12021 ft 363 kts 33°
2026-04-24 20:51 24.43435 55.68011 11985 ft 363 kts 32°
2026-04-24 20:51 24.45595 55.69457 11738 ft 363 kts 24°
2026-04-24 20:51 24.48005 55.70164 11495 ft 359 kts
2026-04-24 20:51 24.50503 55.70011 11271 ft 357 kts 352°
2026-04-24 20:52 24.52965 55.69708 10832 ft 356 kts 353°
2026-04-24 20:52 24.55429 55.69420 10397 ft 351 kts 353°
2026-04-24 20:52 24.57801 55.69158 10240 ft 335 kts 353°
2026-04-24 20:52 24.60072 55.68914 10099 ft 320 kts 353°
2026-04-24 20:53 24.62208 55.68686 9965 ft 306 kts 353°
2026-04-24 20:53 24.64310 55.68462 9694 ft 303 kts 353°
2026-04-24 20:53 24.66395 55.68239 9321 ft 299 kts 353°
2026-04-24 20:53 24.68444 55.68020 8983 ft 294 kts 353°
2026-04-24 20:54 24.70455 55.67805 8657 ft 288 kts 353°
2026-04-24 20:54 24.72444 55.67592 8311 ft 285 kts 353°
2026-04-24 20:54 24.74402 55.67383 7996 ft 281 kts 353°
2026-04-24 20:54 24.76334 55.67176 7652 ft 278 kts 353°
2026-04-24 20:55 24.78248 55.66972 7351 ft 275 kts 353°
2026-04-24 20:55 24.80145 55.66769 7008 ft 272 kts 353°
2026-04-24 20:55 24.82029 55.66568 6681 ft 270 kts 353°
2026-04-24 20:55 24.83888 55.66369 6366 ft 268 kts 353°
2026-04-24 20:56 24.85747 55.66170 6024 ft 266 kts 353°
2026-04-24 20:56 24.87570 55.65975 5690 ft 263 kts 353°
2026-04-24 20:56 24.89386 55.65780 5374 ft 261 kts 353°
2026-04-24 20:56 24.91182 55.65588 5060 ft 258 kts 353°
2026-04-24 20:57 24.92958 55.65398 4734 ft 255 kts 353°
2026-04-24 20:57 24.94713 55.65209 4491 ft 250 kts 353°
2026-04-24 20:57 24.96385 55.65030 4411 ft 238 kts 353°
2026-04-24 20:57 24.98004 55.64857 4334 ft 228 kts 353°
2026-04-24 20:58 24.99550 55.64691 4245 ft 220 kts 353°
2026-04-24 20:58 25.01084 55.64526 4040 ft 225 kts 353°
2026-04-24 20:58 25.02667 55.64354 3994 ft 230 kts 353°
2026-04-24 20:58 25.04264 55.64182 3995 ft 231 kts 353°
2026-04-24 20:59 25.05871 55.64009 4000 ft 231 kts 353°
2026-04-24 20:59 25.07473 55.63838 3997 ft 232 kts 353°
2026-04-24 20:59 25.09050 55.63558 4002 ft 232 kts 339°
2026-04-24 20:59 25.10401 55.62647 3999 ft 230 kts 316°
2026-04-24 21:00 25.11447 55.61298 3997 ft 231 kts 306°
2026-04-24 21:00 25.12333 55.59816 3985 ft 232 kts 302°
2026-04-24 21:00 25.13180 55.58295 3767 ft 234 kts 302°
2026-04-24 21:00 25.14030 55.56767 3455 ft 231 kts 302°
2026-04-24 21:01 25.14858 55.55271 3163 ft 224 kts 302°
2026-04-24 21:01 25.15644 55.53852 2896 ft 203 kts 302°
2026-04-24 21:01 25.16315 55.52639 2649 ft 172 kts 303°
2026-04-24 21:01 25.16897 55.51587 2428 ft 148 kts 304°
2026-04-24 21:02 25.17415 55.50654 2256 ft 139 kts 304°
2026-04-24 21:02 25.17906 55.49768 2084 ft 137 kts 304°
2026-04-24 21:02 25.18409 55.48862 1917 ft 136 kts 303°
2026-04-24 21:02 25.18895 55.47982 1743 ft 135 kts 304°
2026-04-24 21:03 25.19388 55.47093 1577 ft 135 kts 303°
2026-04-24 21:03 25.19878 55.46206 1396 ft 136 kts 303°
2026-04-24 21:03 25.20370 55.45316 1232 ft 136 kts 303°
2026-04-24 21:03 25.20863 55.44423 1054 ft 136 kts 303°
2026-04-24 21:04 25.21364 55.43523 887 ft 138 kts 302°
2026-04-24 21:04 25.21867 55.42613 718 ft 138 kts 302°
2026-04-24 21:04 25.22368 55.41707 535 ft 139 kts 302°
2026-04-24 21:04 25.22862 55.40808 364 ft 138 kts 302°
2026-04-24 21:05 25.23362 55.39893 142 ft 140 kts 302°
2026-04-24 21:05 25.23859 55.39005 30 ft 124 kts 301°
2026-04-24 21:05 25.24222 55.38360 31 ft 71 kts 300°
2026-04-24 21:05 25.24373 55.38076 31 ft 23 kts 302°
2026-04-24 21:06 25.24460 55.37915 30 ft 25 kts 300°
2026-04-24 21:06 25.24554 55.37745 27 ft 27 kts 302°
2026-04-24 21:06 25.24651 55.37573 28 ft 27 kts 301°
2026-04-24 21:06 25.24738 55.37402 28 ft 26 kts 292°
2026-04-24 21:07 25.24779 55.37228 29 ft 19 kts 275°
2026-04-24 21:07 25.24790 55.37069 28 ft 21 kts 271°
2026-04-24 21:07 25.24825 55.36909 27 ft 23 kts 293°
2026-04-24 21:07 25.24871 55.36736 27 ft 25 kts 284°
2026-04-24 21:08 25.24947 55.36564 26 ft 26 kts 302°
2026-04-24 21:08 25.25039 55.36399 26 ft 23 kts 301°
2026-04-24 21:08 25.25128 55.36241 27 ft 26 kts 302°
2026-04-24 21:08 25.25228 55.36065 26 ft 27 kts 302°
2026-04-24 21:09 25.25328 55.35891 26 ft 21 kts 302°
2026-04-24 21:09 25.25380 55.35794 26 ft 9 kts 287°
2026-04-24 21:09 25.25351 55.35726 26 ft 13 kts 219°
2026-04-24 21:09 25.25297 55.35684 26 ft 10 kts 214°
2026-04-24 21:10 25.25256 55.35653 30 ft 1 kts 207°
2026-04-24 21:10 25.25240 55.35644 28 ft 0 kts 208°